Conditions Actuelle
Partiellement Nuageux



Pression
30.15 (inHG) - 1021 (mb)
Visibilité

9.7 (km) - 6.0 (miles)
   Température
10  °C
Température
6  °C
Point de Rosée
76  %
 Humidité
   Vitesse du Vent
13  km/h
7  kts
8  mph
3.6  m/s
   Direction du Vent
N
45°
E
90°
135°
S
180°
225°
O
270°
315°
 350°

Due North
   Données D'Aéroport
LFBG
Cognac-Châteaubernard (BA 709) Air Base
Metar :LFBG 180800Z AUTO 35007KT 330V030 9999 FEW013 SCT058 BKN076 10/06 Q1021 NOSIG
18-04-2024 10:00
   Informations de métar brut
Le METAR brut est le format le plus courant au monde pour la transmission de données météorologiques d'observation. Il est hautement standardisé par l’Organisation de l’aviation civile internationale (OACI), ce qui lui permet d’être compris dans la plupart des pays du monde.
   API Information
Données fournies par
https://www.checkwx.com/weather/LFBG

Météo aéronautique fournissant des rapports météorologiques METAR, TAF, AIRMET, SIGMET et OUTLOOK
   © Info
CSS/SVG/PHP les scripts ont été développés pa weather34.com pour une utilisation dans le modèle weather34 © 2015-2024

Informations sur le guide fournies par Metar-Wikipedia